Location: Umburanas
(4.5000°S, 37.9667°W)
Time: 02:38:01
(UTC+00:00)

ARIANE 3 DEB - Pass Details

Date: 19 November 2019
Orbit: 274 x 4947 km, 6.8° (Epoch: 10 December)

Event Time Altitude Azimuth Distance (km) Brightness Sun altitude
Rises 21:05:33 0° 267° (W) 2,419 7.7 -9.8°
Reaches altitude 10° 21:07:07 10° 265° (W) 1,770 6.8 -10.2°
Maximum altitude 21:11:00 73° 180° (S) 848 3.8 -11.1°
Enters shadow 21:19:47 11° 96° (E) 3,873 6.6 -13.1°
